Wind_Speed
16 15 14 14 14 14 14 13 15 14 13 13 12 12 13 14 12 11 11 11 11 12 13 12 11 11 10 10 10 10 10 10 9 8 7 7 7 7 8 9 9 9 10 10 9 8 9 8 8 8 8 9 9 9 9 9 10 10 10 10 10 9 8 8 8 8 9 9 8 9 9 9 8 8 9 9 8 8 8 7 7 7 7 8 9
15 14 13 13 13 12 13 13 13 11 11 12 12 13 14 14 13 13 13 13 13 13 13 12 11 10 11 10 10 10 10 9 8 7 7 6 6 7 8 9 9 9 9 9 8 8 8 7 8 8 8 8 9 9 9 9 9 9 10 10 10 9 8 8 8 9 10 10 10 10 10 10 9 9 9 9 8 8 8 8 8 8 8 8 8
14 13 12 13 12 11 12 12 11 10 11 13 13 14 15 15 14 14 14 13 13 13 12 11 10 10 11 11 11 10 9 8 7 7 6 5 6 8 8 8 9 9 8 8 7 7 8 6 7 8 8 8 9 9 9 8 7 8 8 9 9 8 8 8 9 9 10 10 10 11 11 11 11 10 9 9 8 8 9 9 9 9 8 8 8
14 12 12 12 11 11 10 10 9 10 13 14 14 15 15 15 14 14 14 13 13 12 11 11 10 10 10 10 10 9 8 7 6 5 5 4 6 7 7 9 10 9 8 7 6 7 7 6 6 7 7 7 8 9 9 8 7 7 7 7 7 7 8 8 9 10 11 10 10 11 12 11 11 11 10 9 9 9 9 10 10 9 9 9 8
13 12 12 11 10 10 10 10 9 11 13 14 14 14 15 14 14 13 13 12 12 11 11 10 10 10 10 9 8 7 7 6 5 4 4 4 5 7 7 9 9 8 8 7 7 7 7 6 6 7 6 6 6 7 7 8 7 7 6 5 5 6 8 9 10 11 11 11 10 11 11 11 11 11 10 9 8 8 9 10 11 10 10 9 9
13 12 11 11 10 10 11 11 11 12 14 13 13 14 14 13 13 12 12 11 11 10 10 9 9 9 8 8 7 6 5 5 4 4 4 4 6 7 8 9 8 7 7 7 8 8 7 6 6 6 5 5 5 5 5 6 7 7 7 6 4 5 7 9 9 10 10 10 10 10 10 9 10 10 9 8 7 7 8 9 10 10 10 10 10
14 13 13 12 12 12 12 13 12 13 13 13 13 14 13 12 12 11 11 10 10 9 8 8 8 7 7 6 5 5 5 4 3 3 4 5 7 9 9 8 8 8 7 8 8 8 7 7 6 5 5 5 4 4 4 5 5 6 6 6 5 4 6 8 8 8 9 9 9 8 8 8 8 8 7 7 7 6 7 8 9 9 10 10 9
15 15 15 14 13 13 13 13 12 12 11 12 13 13 12 11 10 10 9 8 8 7 7 6 6 6 5 5 5 4 4 3 3 3 4 6 8 9 9 8 8 8 8 8 8 7 7 7 6 5 5 5 4 4 4 4 4 5 5 6 7 5 4 7 8 8 8 8 7 8 8 7 6 6 6 5 5 5 6 7 7 7 8 8 8
15 15 15 14 13 13 12 11 11 10 10 11 12 11 10 9 9 8 7 7 6 6 5 5 5 5 5 5 4 4 4 3 3 4 5 7 8 8 8 8 8 7 7 7 7 7 6 6 5 5 5 5 4 4 4 3 4 4 5 7 8 5 4 6 7 7 7 7 7 7 8 7 6 6 5 4 4 4 5 5 6 6 6 6 6
15 14 14 13 13 12 11 10 9 9 9 10 9 8 8 7 7 6 6 5 5 5 5 4 5 5 5 4 4 4 4 3 3 5 7 8 8 7 7 7 7 6 6 6 6 6 6 5 5 5 4 4 4 4 3 3 4 4 5 7 7 6 4 5 5 5 5 5 5 7 8 7 6 6 5 4 3 3 3 4 5 5 4 4 4
13 13 12 12 11 11 10 9 8 7 8 8 7 6 6 6 6 6 5 4 4 5 5 6 6 6 5 4 4 4 4 3 4 6 8 8 7 7 8 8 7 7 6 6 5 5 5 4 4 4 4 4 3 4 3 3 3 4 4 5 6 6 4 3 3 5 4 3 4 5 7 6 6 6 6 5 4 3 3 3 3 3 3 3 3
13 12 11 10 10 9 8 7 6 6 6 5 5 5 5 6 6 5 5 4 5 6 7 7 7 7 6 5 5 5 4 4 4 7 8 8 8 9 9 9 9 8 7 7 6 5 5 4 3 3 3 3 3 3 2 2 3 3 3 4 5 5 4 3 3 3 4 4 4 5 6 6 7 7 6 5 4 4 3 2 2 2 2 3 3
12 11 9 8 8 7 6 6 5 5 5 4 4 5 5 5 6 6 5 5 6 7 8 8 8 7 6 6 6 6 4 4 5 6 8 8 8 9 9 9 9 9 9 8 8 6 5 5 4 3 2 2 2 2 2 2 2 3 2 2 3 4 4 4 3 3 3 4 3 4 6 7 7 7 6 5 5 5 4 3 2 2 2 3 3
11 10 8 7 7 6 5 5 5 4 4 4 5 5 5 6 6 6 6 7 7 8 8 8 9 9 8 7 7 6 5 4 5 7 8 8 8 8 8 9 9 9 9 9 9 8 6 5 5 4 2 1 2 2 2 2 2 2 2 2 2 2 3 4 4 3 4 5 3 3 4 6 7 7 6 6 5 5 5 4 4 3 2 3 3
10 9 7 6 5 5 5 5 5 4 5 5 6 6 6 7 7 7 7 7 7 8 8 10 11 11 10 9 9 8 6 6 6 8 8 8 8 8 8 9 9 10 10 10 10 9 8 6 5 5 3 2 2 2 2 2 2 1 1 2 2 2 1 2 3 3 4 5 5 3 2 3 5 5 5 5 5 5 5 4 4 4 3 3 3
8 7 6 5 4 4 5 5 5 5 6 7 6 7 7 8 8 8 8 8 8 9 10 13 13 13 12 12 11 10 9 8 8 9 9 8 8 8 8 9 11 11 11 11 10 9 8 7 6 5 4 3 2 2 3 4 4 3 2 2 3 3 2 0 1 1 4 6 6 5 4 3 2 2 3 4 4 4 4 4 3 4 4 4 3
6 5 4 4 4 5 6 6 6 7 8 8 7 8 8 9 8 8 8 9 10 11 13 15 14 14 13 12 12 11 10 9 9 9 9 9 8 9 9 10 12 13 13 13 12 11 10 8 7 7 5 5 4 4 4 5 5 5 4 3 4 4 3 2 1 1 2 5 7 7 6 5 3 1 1 2 3 4 4 4 3 3 3 4 3
5 3 3 4 5 6 6 7 7 8 8 8 8 9 9 9 9 9 10 11 12 14 15 15 15 14 13 12 12 11 10 9 9 10 10 10 10 11 11 12 13 14 14 14 13 12 11 10 9 8 7 7 7 6 6 7 6 6 5 4 5 5 5 4 3 3 3 4 6 7 7 7 5 4 2 1 1 2 2 2 3 3 3 3 3
4 3 3 5 6 7 7 8 8 8 8 8 9 10 10 10 10 10 12 13 14 15 16 16 15 15 14 13 12 12 11 11 11 12 12 12 12 13 13 13 14 14 15 15 14 13 12 12 11 10 9 9 8 9 10 9 6 6 6 5 6 5 4 3 2 2 2 4 4 6 6 5 5 5 3 2 2 1 1 1 1 1 2 3 4
3 3 4 6 7 8 9 9 9 9 9 10 11 11 11 11 11 12 14 15 15 16 16 17 16 16 15 14 13 13 12 12 13 14 14 14 14 14 15 14 14 14 15 15 14 14 13 13 13 12 12 11 11 11 13 11 9 9 10 9 10 8 6 4 2 2 2 2 3 4 4 4 4 4 4 3 3 3 2 2 2 1 2 2 3
3 3 5 7 8 9 9 9 9 10 10 11 11 12 12 12 13 14 15 16 16 17 17 18 18 17 16 15 14 14 13 14 14 15 15 15 15 15 15 15 14 14 14 14 14 14 13 14 14 14 13 13 13 14 16 15 12 14 16 14 14 13 12 10 7 5 4 3 1 1 2 2 3 3 4 5 5 5 4 5 4 4 3 3 4
3 5 6 7 8 9 9 9 10 10 11 11 12 12 13 14 15 15 16 17 17 18 18 17 17 17 17 16 15 14 14 15 15 15 15 16 16 15 15 15 15 14 14 14 14 14 14 14 15 14 14 14 14 16 18 18 14 15 18 15 14 13 13 12 10 8 6 5 3 2 2 1 1 2 4 5 7 7 7 6 6 6 5 5 5
4 6 8 8 9 10 9 10 10 11 11 12 12 13 13 14 15 15 16 17 17 17 17 17 17 17 17 17 16 15 14 15 15 15 16 16 16 16 16 15 15 15 15 15 15 15 15 15 15 15 15 14 15 17 19 19 15 15 17 16 16 15 14 13 12 10 8 6 5 4 3 2 2 2 4 6 7 7 8 8 8 8 7 7 6
6 8 9 10 11 10 10 11 11 11 12 12 12 13 13 13 14 15 15 16 16 16 16 16 16 16 16 16 16 15 15 14 14 15 16 17 17 17 17 17 16 15 15 15 15 15 15 15 15 15 15 15 16 17 19 19 18 17 17 17 17 17 16 14 13 11 10 8 8 6 5 3 3 3 5 6 7 7 8 8 9 9 9 9 8
8 10 10 11 11 10 11 11 11 12 12 12 13 13 13 13 13 14 15 14 14 14 15 15 15 15 16 16 16 16 16 15 15 16 16 17 17 17 17 16 16 15 15 14 14 14 14 14 14 14 14 15 15 16 17 18 18 17 17 17 16 16 15 15 14 13 12 11 10 8 7 6 4 4 4 4 5 6 7 8 9 9 9 10 9
10 11 12 12 11 10 11 11 11 12 12 12 13 13 12 12 13 13 14 14 14 14 14 15 15 15 15 15 16 17 16 16 16 16 16 16 16 16 15 14 14 13 13 12 12 12 12 12 12 12 13 14 14 14 15 15 15 15 15 15 14 14 13 13 13 13 13 12 11 10 10 9 7 6 5 4 4 4 5 6 8 9 9 10 10
11 12 13 11 10 10 11 11 11 11 11 12 12 11 11 12 12 13 13 13 13 14 14 15 16 16 15 14 15 15 16 16 16 15 15 15 15 14 13 12 12 12 12 11 12 12 11 11 11 12 13 13 13 13 14 14 14 13 13 13 12 12 12 11 11 12 11 11 11 11 11 11 10 9 8 6 5 4 3 4 6 7 9 9 11
12 13 12 11 10 10 11 11 11 10 10 10 10 10 11 11 11 12 12 12 13 13 14 14 15 15 14 14 14 13 14 14 14 14 14 14 13 12 12 11 11 11 11 11 11 11 11 10 10 11 11 11 12 12 13 13 13 13 13 12 12 11 10 10 10 10 9 9 10 10 10 10 10 10 10 9 9 7 5 5 5 5 7 9 10
13 13 12 10 10 10 10 10 10 9 9 9 9 10 10 10 10 11 11 11 12 13 14 14 14 15 14 13 13 13 12 12 12 12 12 12 12 11 11 10 10 10 10 10 10 10 10 9 9 10 10 10 11 11 12 13 13 13 13 12 12 11 10 9 9 8 8 8 8 8 8 8 9 9 10 10 11 10 9 8 7 6 6 7 9
13 12 11 11 10 10 10 10 10 9 8 8 8 9 9 9 9 10 10 11 12 12 12 13 13 13 13 12 12 12 11 11 11 11 11 11 10 10 9 9 9 9 9 9 9 10 10 10 10 9 10 10 10 10 11 12 12 12 12 12 12 11 10 10 8 8 8 7 7 7 7 7 7 8 9 9 10 11 11 10 9 8 7 7 8
13 13 12 11 11 11 11 10 10 8 8 7 8 8 9 9 9 10 10 10 11 11 11 11 11 12 11 11 10 10 10 10 10 9 9 9 8 8 8 8 9 9 9 9 10 10 10 10 10 9 10 10 10 10 10 11 11 12 12 12 12 11 11 10 9 8 8 7 6 6 6 6 6 6 7 8 8 9 10 10 10 10 9 8 7
14 14 12 12 12 11 12 11 10 9 8 8 8 8 8 8 9 9 9 9 10 10 9 10 10 9 9 9 9 8 8 8 7 7 7 7 7 7 7 8 8 8 8 9 10 10 10 10 9 9 10 10 10 10 11 11 12 12 12 12 12 12 11 10 9 9 8 8 6 6 6 6 6 6 6 6 7 8 9 9 10 10 10 10 10
14 14 13 13 13 12 12 11 10 8 8 8 7 7 7 8 8 8 8 8 9 9 8 8 9 8 8 7 7 6 6 6 6 6 6 6 6 7 7 7 7 8 8 9 9 9 10 10 9 10 9 9 9 10 10 11 11 11 11 11 12 11 11 11 10 9 9 9 7 6 6 5 5 6 6 6 7 8 8 9 10 10 10 11 11
14 14 14 13 13 12 11 10 9 8 8 7 7 6 6 7 7 7 7 7 7 7 7 7 7 7 6 5 5 4 4 5 5 5 5 6 7 7 8 8 8 8 8 8 8 8 9 9 9 10 9 9 9 10 9 9 10 10 10 11 11 11 11 11 11 10 10 10 9 7 6 6 6 6 6 7 7 8 8 8 9 9 10 10 10
14 13 13 13 13 12 11 9 8 8 8 7 6 6 6 6 6 6 6 5 6 6 6 5 5 5 5 4 3 3 3 4 5 5 5 6 6 7 8 8 7 8 8 8 8 8 8 9 10 10 10 9 9 10 10 8 8 8 9 9 10 10 10 11 12 11 10 9 9 8 8 7 6 6 7 7 8 8 8 8 8 9 9 9 9
14 13 13 13 12 11 10 9 8 8 7 7 6 5 5 5 5 5 5 5 5 5 5 4 4 4 3 3 2 2 3 4 4 5 5 5 6 6 7 7 7 8 8 9 9 9 9 10 11 11 10 10 10 10 11 10 9 8 8 9 9 10 10 11 11 12 11 10 9 8 9 9 8 7 7 7 8 8 9 9 9 9 9 9 9
14 14 13 13 11 10 10 9 8 7 6 6 5 5 4 4 4 4 5 5 4 4 4 3 2 2 2 2 2 2 3 3 4 4 5 6 6 7 7 8 8 9 10 10 11 10 11 12 12 12 11 11 11 10 11 11 10 9 8 9 9 10 10 11 11 12 12 11 10 9 8 8 9 8 8 7 7 7 7 8 9 9 9 9 9
14 14 13 12 11 10 9 8 7 6 6 5 5 4 4 3 3 3 4 4 4 3 3 2 1 2 2 2 2 2 2 3 3 4 4 5 6 7 8 8 9 10 11 12 12 12 12 12 12 12 12 12 11 11 11 12 12 10 9 9 9 9 10 11 11 11 11 11 11 10 8 8 8 9 9 8 8 7 6 7 8 8 9 9 9
14 13 12 12 11 10 9 8 7 6 5 5 4 3 3 3 2 2 2 2 3 3 2 2 1 1 2 1 1 2 3 3 4 4 4 5 6 7 8 9 10 11 12 13 13 12 12 13 13 12 12 12 11 11 11 11 12 11 10 10 9 9 10 11 11 12 11 11 11 11 10 9 9 9 9 9 8 7 6 5 6 7 8 8 9
13 12 12 11 10 10 9 8 7 6 5 5 3 3 3 2 2 2 2 2 2 2 2 2 1 1 1 0 1 2 3 4 5 5 5 6 6 8 9 11 12 13 14 14 14 14 14 13 13 13 12 12 12 11 11 11 11 11 11 10 10 9 10 10 11 12 12 11 10 11 11 10 10 10 10 10 8 7 6 4 4 5 7 8 8
11 11 11 11 10 9 9 8 7 6 5 5 3 2 3 3 3 3 3 3 2 2 1 2 2 2 1 1 2 3 3 4 5 5 7 8 9 10 11 12 14 15 16 16 16 16 15 14 14 14 13 13 13 12 11 11 11 11 11 11 10 10 10 10 10 11 13 12 10 10 11 11 11 11 11 11 9 9 7 5 3 5 6 8 8
12 11 11 10 9 9 9 8 7 7 5 5 4 3 3 3 3 3 3 3 3 3 2 3 3 3 2 2 2 3 5 5 7 8 9 10 12 13 14 15 16 16 17 17 17 16 16 15 15 14 14 13 13 13 13 12 11 11 12 12 11 11 12 11 10 10 12 13 12 11 11 11 11 11 11 12 11 9 9 8 5 5 6 8 8
11 11 10 10 10 10 10 9 9 8 6 5 5 4 4 3 4 4 4 4 4 4 4 4 4 4 3 4 4 5 7 8 9 11 12 13 15 16 17 18 18 18 18 18 18 17 15 15 15 15 15 14 14 14 14 14 13 13 13 14 13 13 13 13 13 12 12 13 14 14 13 12 12 12 12 12 13 10 9 10 8 6 7 7 8
10 10 10 10 10 10 10 9 9 8 7 6 6 5 5 5 5 5 5 5 5 5 5 5 5 5 5 6 7 8 9 11 12 13 15 16 17 18 18 19 19 18 18 18 17 16 15 15 15 16 16 15 15 14 14 14 15 15 14 14 15 15 15 16 16 15 14 13 14 15 16 15 13 14 13 12 14 13 10 9 9 7 7 8 8
10 10 11 11 10 10 10 9 8 8 8 8 7 7 7 7 7 7 7 6 6 7 6 6 6 6 7 8 9 10 12 13 14 16 17 18 18 18 18 17 17 16 16 16 16 16 16 16 16 16 16 15 15 15 15 15 16 16 16 16 16 16 16 18 18 17 17 16 15 16 18 18 15 15 15 13 14 14 11 9 9 8 7 8 9
12 12 12 12 11 10 9 9 9 8 9 9 9 9 9 9 9 9 8 8 8 9 8 8 8 8 9 10 11 12 14 15 16 17 17 17 17 16 16 15 15 15 16 16 15 16 16 16 16 16 15 15 15 16 16 16 16 17 17 17 18 18 18 19 20 20 20 20 19 17 18 19 18 17 17 15 15 15 14 12 11 10 8 8 10
13 13 13 12 11 10 9 9 9 8 9 9 9 10 11 11 11 11 10 10 10 10 10 10 10 10 11 12 12 13 15 16 16 16 16 15 14 14 14 14 14 15 15 15 15 15 15 15 15 15 15 15 15 16 17 17 17 18 18 19 19 19 19 20 21 22 23 22 22 21 20 20 20 20 19 19 17 16 15 15 14 14 13 11 12
13 13 12 12 11 11 11 10 9 9 8 8 9 10 11 12 12 12 12 12 12 12 12 12 12 11 12 13 13 13 15 16 16 15 14 13 13 13 13 13 14 15 15 14 14 14 14 14 14 15 15 15 15 16 17 18 18 18 19 19 20 20 21 21 22 23 24 25 24 24 23 22 22 21 20 21 21 19 17 16 16 18 18 16 15
13 13 13 13 13 13 12 11 10 10 9 8 9 10 11 12 12 13 13 13 13 14 14 13 13 13 13 14 14 14 15 15 14 13 13 12 12 12 13 14 15 15 14 13 13 13 13 13 13 14 14 15 15 16 16 17 18 19 19 19 20 20 21 22 22 23 25 25 26 26 25 24 24 23 21 21 22 23 21 19 17 18 19 19 18
15 15 14 14 15 15 14 13 13 12 12 11 10 11 11 12 13 13 14 14 14 15 15 14 14 14 14 15 15 15 14 13 12 12 12 12 13 13 13 13 13 13 13 13 13 13 13 13 13 14 14 15 15 15 16 17 17 18 18 19 20 20 21 22 23 23 25 25 26 28 28 26 26 25 23 22 22 23 24 23 21 20 20 20 20
18 18 17 16 16 17 17 17 16 15 14 13 13 13 12 13 13 14 15 15 15 15 15 15 15 15 15 16 16 15 14 12 11 12 12 12 12 12 12 12 12 12 13 14 15 15 15 15 16 16 17 17 17 18 17 18 18 18 18 18 19 20 21 23 24 24 26 27 27 28 29 29 28 27 26 25 24 24 24 24 23 23 22 22 22
Wind_Direction
111 107 105 104 104 106 105 102 106 101 83 72 72 73 80 89 90 91 91 90 92 92 93 95 99 101 101 101 100 95 88 85 87 89 90 85 84 87 84 80 77 73 73 72 74 78 82 86 90 87 82 79 81 85 83 80 76 76 78 80 81 82 87 91 94 95 92 89 86 83 79 74 70 68 67 64 62 66 72 88 106 124 137 148 162
107 98 95 99 102 103 103 102 102 90 70 69 75 80 86 90 91 92 92 93 94 94 96 100 104 105 102 98 93 88 85 86 88 90 89 88 90 86 82 80 78 73 71 73 76 79 77 80 87 84 82 78 79 83 85 84 80 78 78 82 82 82 87 92 96 97 93 91 91 88 85 79 73 68 67 65 59 59 65 75 90 108 125 138 152
98 90 91 94 94 92 94 96 93 76 70 76 82 86 88 90 92 93 94 96 97 98 101 104 106 101 95 91 90 88 88 89 90 91 92 92 88 85 82 80 77 72 71 73 78 81 75 74 82 82 81 80 79 78 82 84 83 78 73 75 78 82 88 94 99 98 94 90 92 91 86 81 76 69 66 64 59 57 63 73 82 95 111 123 137
94 90 91 91 90 89 87 89 87 80 82 85 89 91 91 92 94 96 97 99 101 101 100 99 95 92 91 93 92 91 91 92 94 97 98 94 87 86 82 76 74 70 70 72 75 79 75 70 76 80 79 81 82 77 76 75 74 73 70 69 69 75 82 92 98 99 96 92 89 87 84 80 77 73 68 64 61 61 65 72 78 87 98 109 121
94 92 92 93 93 92 88 88 90 89 88 90 94 95 93 93 94 95 96 98 98 96 94 92 89 91 95 96 94 93 93 94 100 105 103 96 87 83 75 71 70 68 67 67 67 69 72 69 68 75 76 78 78 74 70 65 59 55 57 58 61 65 69 81 93 96 93 91 87 83 81 78 78 76 73 69 66 67 69 71 76 82 89 99 108
95 94 93 94 95 93 89 88 90 90 89 92 95 93 91 90 91 92 92 94 93 92 91 90 91 95 97 96 94 93 95 98 105 108 106 95 81 75 70 68 67 66 63 61 59 58 61 61 60 66 71 70 65 62 60 58 53 48 44 42 48 56 60 72 87 95 91 89 86 81 81 79 80 80 80 77 72 71 72 72 75 79 83 90 97
98 97 95 96 97 95 92 90 89 90 92 92 91 88 87 86 87 88 90 91 88 88 88 92 95 96 93 90 91 94 96 101 108 108 99 84 75 72 69 66 63 59 56 56 54 50 50 50 48 50 57 58 56 55 51 52 54 50 42 36 41 49 58 70 84 96 92 88 88 88 84 80 80 81 82 83 81 75 73 73 74 79 84 88 91
98 98 98 97 96 95 93 92 90 90 90 87 85 84 83 81 82 83 84 83 83 87 90 94 93 89 88 88 93 96 97 101 103 96 84 74 70 70 68 64 58 53 51 51 49 46 43 41 39 37 38 41 45 52 54 52 50 47 39 32 36 39 46 67 84 96 92 88 93 94 85 78 80 81 82 84 88 84 78 75 72 74 82 89 91
96 97 98 98 96 95 93 92 90 89 86 81 79 78 76 76 75 76 77 79 83 88 90 86 83 83 85 88 91 92 95 95 81 72 69 65 63 64 63 61 57 50 46 42 40 40 36 33 31 30 31 30 31 39 44 43 40 36 32 32 35 37 38 59 82 94 90 82 85 90 82 79 80 84 86 89 91 89 85 80 77 71 68 79 86
97 98 100 100 99 96 93 91 88 85 80 75 73 73 74 74 75 77 77 79 82 80 76 73 74 77 78 78 80 87 86 74 62 64 61 56 53 53 54 54 51 44 38 32 26 26 26 24 24 25 28 30 28 31 30 21 26 29 29 33 34 35 43 58 80 94 96 83 78 80 79 78 77 78 82 91 95 93 90 86 88 84 74 66 70
98 99 99 98 96 94 91 89 87 82 76 73 73 75 75 77 78 78 77 76 73 66 60 64 67 67 69 74 81 83 76 64 59 60 57 50 43 42 45 45 40 36 33 26 14 6 6 4 11 22 28 34 29 27 23 12 14 23 27 28 28 31 47 73 94 102 110 95 77 73 74 76 74 70 71 84 99 105 105 97 100 99 92 71 58
101 99 98 94 91 89 89 90 92 88 80 76 76 76 75 75 77 76 75 69 58 56 57 59 62 65 73 81 85 82 75 62 55 57 54 46 40 39 39 38 34 35 37 32 18 2 353 345 346 7 26 35 30 18 15 13 11 21 22 14 18 26 47 85 113 118 116 93 77 73 69 74 74 69 66 70 86 98 104 106 115 116 109 92 72
107 104 103 98 96 95 98 104 106 98 87 79 72 69 72 74 77 77 72 62 57 58 60 64 69 76 81 87 88 86 79 63 54 55 53 44 39 39 36 32 31 35 39 37 31 19 1 350 340 341 5 28 30 13 357 7 11 19 17 7 12 15 38 78 117 136 128 106 98 96 76 73 73 69 67 65 72 84 94 100 106 125 141 131 117
114 112 110 107 109 110 114 119 115 104 89 73 66 64 70 77 78 78 72 62 63 68 71 77 83 86 87 89 90 90 83 70 61 57 55 48 41 39 31 27 29 32 35 37 38 31 17 3 350 344 346 9 20 12 1 6 4 4 1 357 3 352 27 74 117 139 141 137 148 147 93 76 69 64 65 67 72 79 87 95 98 103 131 151 144
115 113 111 112 114 117 121 115 107 96 81 70 68 71 76 81 83 79 73 70 74 80 87 92 93 92 91 92 95 96 90 79 68 63 61 55 45 37 28 26 29 32 33 36 39 37 30 19 9 5 10 15 13 11 9 20 6 334 323 329 335 314 351 76 122 154 168 170 171 178 160 94 72 59 58 61 67 72 83 90 96 96 96 120 142
112 109 107 107 105 110 112 104 96 86 79 77 79 83 86 88 88 81 76 79 85 91 96 99 99 97 96 96 97 97 91 83 74 69 65 59 51 44 38 35 35 37 39 40 40 42 41 35 29 26 33 31 16 8 8 22 14 349 333 307 297 292 292 6 131 176 188 195 194 197 212 190 123 65 51 50 57 60 73 83 94 98 92 91 112
113 109 106 103 100 102 102 97 89 85 87 89 91 91 93 92 86 82 84 88 92 97 101 103 103 103 102 100 98 97 93 87 79 74 70 64 59 57 56 51 48 48 49 49 47 47 48 46 43 40 42 42 36 28 21 21 14 5 354 314 295 299 302 300 272 263 218 208 203 203 216 216 210 190 82 27 41 51 59 74 89 101 101 94 90
122 113 106 104 105 103 100 96 90 91 95 97 97 95 94 92 88 88 91 93 95 100 104 105 106 106 105 102 99 99 96 91 85 80 78 76 72 71 70 65 60 58 58 58 56 53 52 51 50 48 45 45 45 45 42 34 22 15 6 342 328 322 311 295 273 272 244 211 201 202 214 220 221 217 203 268 338 31 43 59 85 106 123 119 113
136 121 109 114 113 107 104 102 100 99 101 99 97 96 96 95 94 94 94 95 98 102 105 107 107 106 105 103 102 100 98 95 90 87 85 85 82 79 76 71 66 63 63 63 63 61 59 57 55 53 50 49 50 53 54 48 37 33 25 9 5 354 335 313 289 269 215 201 199 199 202 205 213 217 215 236 257 272 330 358 66 116 146 149 146
138 123 119 122 118 112 112 110 107 104 101 100 98 99 101 101 98 96 96 97 99 102 105 107 107 105 104 103 102 101 99 97 92 89 87 86 83 80 77 73 68 66 66 66 67 66 65 64 60 57 54 53 52 55 62 57 41 47 53 48 49 50 50 56 66 103 136 171 196 199 185 177 192 205 212 228 242 246 249 251 243 201 181 181 182
133 130 130 124 119 117 117 111 105 102 100 100 101 104 104 102 100 98 97 98 99 101 103 106 106 105 103 103 103 103 101 97 92 88 86 85 82 79 76 73 70 67 66 65 66 65 65 66 65 63 60 58 57 59 67 64 46 54 67 67 66 64 61 63 67 85 87 73 110 181 163 160 186 209 224 234 242 242 240 241 235 226 212 203 208
139 137 134 126 122 120 116 107 102 100 100 101 103 106 105 102 100 100 99 99 100 101 103 105 106 104 104 105 106 104 101 96 91 87 85 84 83 79 77 74 72 69 67 66 65 66 65 64 64 63 61 58 58 59 66 67 53 53 65 69 71 69 62 61 62 70 68 59 72 72 62 66 225 236 248 248 247 245 244 246 243 236 227 217 217
146 141 135 130 126 120 112 105 103 101 101 103 107 109 107 104 102 102 101 101 102 102 104 105 106 105 104 106 107 105 100 95 92 88 85 85 85 84 82 79 77 74 71 69 67 66 63 61 59 59 58 57 57 58 66 70 61 52 56 59 59 62 62 59 59 60 58 54 53 53 53 31 329 283 269 263 259 256 251 250 250 247 242 233 226
149 141 137 133 126 117 110 106 104 102 102 103 107 110 110 108 106 105 103 103 104 104 104 105 106 105 105 105 106 104 101 100 97 94 90 88 87 87 85 83 81 79 76 74 70 67 63 60 56 53 52 53 54 55 61 66 63 54 52 54 54 56 58 56 56 55 54 50 42 34 30 17 334 307 286 277 274 269 260 253 249 248 246 243 237
149 142 139 133 124 115 110 109 106 102 101 101 104 107 110 110 108 107 106 107 106 106 105 104 104 104 105 106 106 105 104 105 102 98 95 92 89 87 86 85 83 81 79 77 74 71 67 63 57 52 47 44 45 48 53 58 59 55 51 51 51 53 56 56 53 50 50 46 40 35 27 22 2 334 316 303 289 276 268 260 254 249 247 246 243
148 144 141 134 124 119 115 113 109 104 100 99 100 102 107 110 109 109 110 111 109 107 106 105 105 104 106 107 106 105 105 105 103 101 98 94 91 87 85 85 84 82 81 79 76 72 66 62 57 50 45 39 36 38 44 50 56 58 54 51 47 45 48 53 53 46 44 43 37 35 30 25 16 357 347 338 314 294 281 270 263 257 254 250 247
149 146 143 136 127 124 121 118 113 108 102 98 98 102 106 108 110 111 112 113 110 109 109 109 109 109 109 108 105 105 104 103 103 102 99 94 91 89 86 84 81 78 76 72 69 67 61 56 51 45 42 36 32 31 34 39 45 51 55 56 53 45 37 39 48 45 38 38 35 31 29 25 19 9 2 355 344 339 318 286 272 264 260 254 251
150 148 144 137 130 126 123 119 116 112 105 101 101 103 104 107 109 110 112 114 112 110 111 111 110 109 109 108 105 102 99 98 99 98 95 94 92 89 86 82 79 76 72 68 64 62 59 54 49 45 42 36 31 29 29 31 34 38 43 48 53 52 43 32 36 43 36 33 32 27 26 23 18 13 10 5 360 360 352 328 307 281 264 256 253
149 148 143 137 133 128 125 121 120 117 111 106 104 105 107 109 111 109 110 112 112 112 112 111 109 107 106 105 103 99 95 94 93 92 90 90 91 89 86 85 83 81 77 70 64 62 60 57 51 45 42 37 33 29 27 28 27 28 32 35 40 45 47 39 30 38 39 31 30 27 23 20 16 13 13 12 9 9 8 360 343 321 294 272 264
149 148 144 139 135 130 129 127 126 124 118 112 107 108 110 115 114 110 109 109 110 113 115 113 110 108 105 101 100 99 96 90 86 84 83 83 85 86 87 87 83 79 76 69 63 59 55 51 46 40 35 33 31 27 23 27 26 21 23 26 29 31 38 42 32 30 38 34 27 26 22 18 16 11 11 12 13 14 14 14 7 354 336 309 295
152 151 149 142 137 134 134 132 131 128 123 116 110 107 109 116 117 113 112 110 108 110 112 112 110 107 103 99 97 96 91 85 83 81 81 81 79 77 76 76 70 65 62 58 54 51 48 44 41 36 28 24 22 20 16 21 24 19 15 17 19 21 24 31 31 24 29 36 27 22 21 15 15 11 8 6 7 9 10 12 12 8 360 346 343
158 157 152 144 139 138 135 133 132 129 125 119 112 109 109 113 116 115 115 113 112 111 112 114 114 110 105 101 95 91 89 87 83 79 81 81 74 67 62 61 59 54 49 46 46 43 41 36 34 32 25 17 11 11 10 11 18 15 8 10 12 13 13 15 22 18 14 25 24 19 16 9 9 6 3 360 356 358 359 3 5 7 7 4 10
163 160 154 147 143 140 136 133 133 133 130 125 120 116 114 114 115 117 119 119 120 119 118 117 116 116 112 109 103 97 92 87 80 75 74 67 61 55 50 49 48 47 42 39 40 39 37 30 26 26 22 13 3 1 5 5 8 8 2 4 6 6 5 2 10 12 5 9 14 12 8 4 3 356 355 354 351 352 350 352 355 359 5 9 12
166 162 157 151 148 143 139 136 134 134 134 133 131 125 118 117 116 119 124 128 129 127 125 120 115 114 112 110 110 104 89 79 75 74 69 58 53 48 44 42 39 36 33 30 31 31 32 26 19 18 13 7 359 352 358 2 360 359 357 360 3 2 1 356 359 3 0 359 360 360 0 2 357 348 349 349 346 348 346 345 347 350 355 3 8
170 166 162 156 151 149 146 141 136 132 130 131 132 130 125 124 122 126 133 137 137 133 131 124 114 109 103 104 102 85 66 64 67 67 63 56 49 42 37 33 31 25 18 16 18 17 16 13 11 11 5 1 356 346 346 354 356 352 350 356 1 1 360 355 354 355 356 355 352 351 352 354 351 347 347 344 343 343 341 341 343 345 348 354 1
175 171 167 161 157 155 152 148 143 136 130 125 125 130 133 134 136 140 142 144 141 136 133 124 110 97 87 83 72 54 53 56 59 58 51 45 40 34 24 17 14 9 3 1 2 1 359 359 360 1 359 357 352 343 338 341 348 349 348 352 357 0 0 357 353 350 350 351 351 350 347 345 343 345 345 339 339 339 337 339 342 344 345 348 354
180 178 172 167 165 162 160 158 153 146 138 128 121 126 138 144 145 147 148 148 144 135 127 120 103 88 72 66 63 58 55 48 45 44 33 22 20 18 9 3 359 353 351 350 350 350 346 346 348 350 352 352 347 339 335 334 339 345 347 348 352 358 360 357 354 350 347 345 345 345 343 339 335 337 341 335 334 335 336 337 339 343 342 342 347
184 183 177 173 171 170 170 168 164 157 148 140 131 129 142 149 147 149 155 154 148 134 122 115 94 83 78 69 70 61 45 37 31 25 19 12 8 4 358 353 351 347 344 343 342 341 337 335 336 340 344 344 338 335 335 332 333 339 342 344 348 353 356 357 354 350 348 343 338 337 338 336 332 331 332 330 326 327 334 336 336 340 340 339 341
188 185 180 179 179 180 181 179 177 170 159 157 149 139 145 154 159 161 166 165 154 142 125 111 104 101 103 77 49 35 16 15 14 6 5 5 1 353 346 342 342 340 338 336 334 332 330 329 328 331 335 333 328 329 334 330 328 332 335 337 340 345 351 354 352 347 347 345 337 335 338 337 334 331 325 321 319 318 325 333 335 338 336 335 337
189 187 184 186 186 187 189 189 191 185 172 173 173 153 150 160 174 179 187 196 183 157 133 129 157 170 138 45 4 9 4 359 353 348 345 344 344 340 333 331 332 330 329 328 327 326 326 325 324 325 326 323 319 323 328 325 325 327 328 331 332 338 344 348 348 342 342 348 343 338 339 336 331 327 318 314 315 312 310 318 327 331 331 330 329
191 191 191 193 194 194 195 195 203 204 186 183 192 178 164 169 182 194 203 209 208 183 161 166 193 232 268 321 338 339 338 338 329 325 326 324 324 325 323 322 321 321 321 321 321 321 320 320 321 321 321 317 315 317 319 319 322 322 322 325 326 328 330 337 342 338 337 342 345 339 336 336 330 321 314 311 312 310 303 299 307 320 325 323 320
197 198 197 199 200 203 204 204 211 217 207 200 209 203 188 187 193 208 215 214 211 201 197 202 214 240 268 287 308 312 315 316 313 313 315 314 315 317 316 315 314 314 315 316 317 317 315 317 319 319 318 314 312 312 312 314 317 318 319 320 321 320 320 325 329 330 331 332 335 334 330 334 333 324 317 309 307 307 303 299 301 313 321 320 318
202 204 204 206 208 213 215 214 218 225 223 218 222 220 213 210 211 219 222 218 218 214 214 220 230 245 265 286 295 299 302 305 307 309 311 311 313 315 314 313 313 314 315 316 316 315 314 317 320 321 318 315 312 311 310 311 313 315 317 318 318 318 316 318 319 321 324 324 326 326 323 329 332 326 322 312 305 302 299 296 295 303 315 322 324
206 207 211 215 217 222 227 227 228 233 235 233 232 231 228 225 224 227 227 223 224 224 224 229 240 253 267 282 290 296 299 302 306 309 312 313 313 313 312 313 315 318 320 319 318 317 317 319 321 321 319 317 314 310 309 310 311 312 313 315 317 317 315 315 316 316 316 315 316 317 318 322 325 322 322 316 304 299 297 292 289 292 301 311 320
210 213 215 221 226 231 238 242 242 242 245 244 239 236 236 234 231 231 230 229 230 231 232 234 244 256 266 276 286 295 300 305 309 312 314 315 313 313 314 316 320 325 327 326 324 323 321 322 323 323 321 318 315 313 312 312 312 311 311 311 313 315 313 313 314 313 312 311 310 310 312 316 318 315 316 315 307 301 297 290 286 281 279 288 301
219 220 220 222 228 235 243 249 248 245 247 250 246 241 240 239 237 237 235 234 237 240 241 241 248 257 267 278 287 295 301 307 312 315 316 316 316 317 319 323 329 335 337 336 334 331 329 328 327 325 323 321 319 316 315 313 312 312 311 310 311 311 311 310 311 310 309 309 308 306 306 309 312 310 310 309 307 305 301 294 285 278 272 275 286
229 229 229 227 228 231 235 240 246 244 245 251 253 248 245 243 242 243 242 241 244 248 250 251 255 263 272 281 289 298 304 309 313 314 316 319 322 323 324 331 338 343 344 344 342 339 335 331 328 328 326 324 321 318 317 315 314 313 312 311 311 310 309 307 307 307 307 307 306 305 303 303 302 303 305 304 302 302 301 297 289 283 279 276 280
237 238 240 240 236 234 232 232 239 243 243 247 253 254 251 249 248 248 247 247 249 254 257 260 264 270 278 285 291 299 305 308 310 312 316 321 325 327 330 335 340 343 344 345 345 343 338 335 332 330 327 323 320 318 316 315 314 313 312 311 309 308 306 305 305 305 304 304 304 303 303 301 297 296 300 302 301 299 296 294 290 286 285 283 281
243 244 246 248 248 244 240 237 236 241 241 238 244 251 253 254 253 252 252 252 254 257 261 265 270 275 281 286 292 299 303 304 305 308 314 321 326 329 331 334 335 337 338 339 340 340 338 337 334 329 325 322 320 318 316 315 313 312 310 308 306 305 304 304 304 303 302 302 302 302 302 300 296 294 295 296 298 298 295 292 289 286 285 285 283
255 253 251 252 255 254 250 244 239 239 241 239 239 245 250 254 255 255 256 257 258 261 265 268 272 276 281 286 292 298 300 298 301 307 314 320 325 328 329 329 329 328 327 327 328 329 329 328 324 321 319 318 319 318 317 315 311 309 307 305 304 303 303 303 303 302 300 299 299 300 299 297 295 293 292 290 291 293 294 293 290 287 285 283 282
266 263 260 257 257 260 259 254 248 245 243 243 242 243 247 250 252 255 257 259 259 262 265 269 272 277 280 284 290 294 293 294 302 308 314 321 325 327 326 323 320 317 316 317 318 320 321 319 316 314 314 314 315 314 312 310 307 305 304 302 301 302 302 302 302 301 299 299 299 297 295 294 293 291 290 288 287 288 289 290 289 288 287 285 281
Height
5902 5904 5905 5905 5906 5907 5907 5908 5909 5909 5909 5909 5910 5910 5910 5911 5911 5912 5912 5913 5913 5913 5913 5914 5914 5915 5914 5914 5915 5915 5916 5916 5916 5916 5915 5915 5915 5915 5915 5915 5915 5915 5915 5915 5916 5916 5915 5915 5914 5914 5914 5915 5915 5915 5915 5915 5915 5915 5915 5915 5916 5916 5916 5916 5916 5916 5915 5915 5915 5915 5915 5915 5914 5914 5914 5914 5914 5914 5914 5914 5915 5915 5916 5917 5918
5903 5904 5905 5906 5907 5908 5909 5909 5910 5910 5910 5910 5910 5911 5911 5911 5912 5913 5913 5913 5913 5914 5914 5915 5915 5915 5915 5915 5915 5916 5916 5916 5917 5916 5915 5915 5915 5916 5915 5915 5915 5915 5915 5916 5916 5916 5915 5915 5914 5914 5915 5915 5915 5915 5916 5916 5916 5916 5916 5916 5916 5916 5916 5916 5915 5915 5915 5915 5915 5915 5915 5915 5915 5915 5915 5914 5915 5915 5915 5915 5915 5916 5917 5917 5918
5904 5905 5906 5907 5908 5909 5909 5910 5910 5910 5910 5910 5911 5912 5912 5912 5913 5913 5913 5914 5914 5915 5915 5916 5916 5916 5915 5915 5916 5916 5916 5917 5917 5916 5916 5915 5916 5916 5916 5915 5915 5915 5916 5916 5916 5916 5915 5915 5915 5914 5915 5915 5916 5916 5916 5916 5916 5916 5916 5916 5916 5915 5915 5915 5915 5915 5915 5915 5915 5915 5915 5915 5915 5915 5915 5915 5915 5915 5916 5916 5916 5917 5917 5918 5919
5904 5906 5907 5908 5908 5909 5910 5910 5911 5911 5911 5911 5912 5912 5912 5913 5913 5914 5914 5915 5915 5915 5916 5916 5916 5916 5916 5916 5916 5916 5917 5917 5917 5917 5916 5916 5917 5917 5916 5916 5915 5916 5916 5916 5916 5915 5915 5915 5915 5915 5915 5915 5916 5916 5917 5917 5917 5916 5916 5916 5915 5915 5915 5916 5915 5916 5916 5915 5915 5915 5915 5915 5915 5916 5916 5916 5916 5916 5916 5916 5917 5917 5918 5919 5920
5906 5907 5907 5908 5909 5910 5910 5910 5911 5911 5911 5912 5913 5913 5913 5913 5914 5914 5915 5915 5915 5916 5916 5916 5916 5916 5916 5916 5916 5917 5918 5918 5918 5917 5917 5917 5917 5917 5916 5916 5916 5916 5916 5916 5916 5915 5915 5916 5915 5915 5915 5916 5916 5917 5917 5917 5917 5916 5916 5915 5915 5915 5916 5916 5916 5917 5917 5917 5917 5916 5916 5916 5916 5916 5916 5917 5917 5917 5917 5917 5917 5918 5919 5919 5920
5907 5908 5908 5909 5910 5911 5911 5911 5911 5911 5912 5913 5914 5913 5913 5914 5914 5915 5915 5916 5916 5916 5917 5917 5917 5917 5917 5916 5917 5918 5918 5918 5918 5918 5918 5918 5917 5917 5916 5916 5916 5916 5916 5916 5916 5915 5915 5916 5916 5915 5916 5916 5917 5917 5918 5918 5917 5916 5916 5915 5916 5916 5917 5917 5917 5917 5917 5917 5917 5917 5917 5917 5917 5917 5917 5917 5917 5918 5918 5918 5918 5918 5919 5920 5920
5908 5908 5909 5910 5911 5911 5911 5912 5912 5913 5913 5914 5914 5913 5913 5914 5914 5915 5916 5916 5916 5917 5917 5917 5917 5917 5917 5917 5918 5918 5919 5919 5918 5918 5918 5918 5917 5917 5916 5916 5916 5916 5916 5916 5915 5915 5915 5915 5915 5915 5916 5916 5917 5918 5918 5917 5917 5916 5915 5916 5916 5917 5917 5917 5917 5917 5918 5918 5918 5918 5918 5918 5917 5918 5918 5918 5918 5918 5918 5918 5919 5919 5919 5920 5921
5908 5909 5910 5910 5911 5912 5912 5912 5913 5914 5914 5914 5913 5913 5914 5914 5915 5915 5916 5916 5916 5917 5917 5917 5918 5918 5918 5918 5918 5919 5919 5919 5918 5918 5918 5918 5917 5917 5916 5916 5916 5916 5916 5916 5915 5915 5915 5915 5915 5915 5916 5916 5917 5918 5918 5917 5916 5916 5916 5916 5917 5918 5917 5918 5918 5918 5918 5918 5918 5918 5918 5918 5918 5918 5918 5918 5918 5919 5919 5919 5919 5919 5920 5920 5921
5908 5909 5910 5911 5911 5912 5912 5912 5913 5914 5914 5914 5913 5913 5914 5914 5915 5915 5916 5916 5917 5917 5918 5918 5918 5918 5918 5918 5918 5919 5919 5919 5918 5918 5918 5918 5917 5917 5916 5916 5916 5916 5916 5916 5915 5915 5915 5915 5915 5915 5916 5916 5917 5917 5917 5917 5916 5916 5916 5917 5918 5917 5917 5918 5919 5920 5919 5919 5919 5918 5918 5918 5918 5918 5919 5919 5919 5919 5919 5919 5920 5920 5920 5921 5921
5909 5910 5910 5911 5912 5912 5912 5912 5913 5913 5913 5913 5913 5914 5914 5915 5915 5916 5916 5917 5917 5917 5918 5918 5919 5919 5918 5918 5919 5920 5919 5919 5918 5918 5918 5918 5917 5917 5917 5917 5917 5916 5916 5916 5915 5915 5915 5915 5915 5915 5916 5916 5917 5917 5917 5916 5916 5916 5917 5917 5918 5917 5918 5918 5919 5919 5919 5919 5919 5919 5918 5918 5918 5918 5919 5919 5919 5919 5920 5920 5920 5920 5921 5921 5922
5910 5910 5910 5911 5911 5911 5912 5912 5912 5913 5913 5913 5914 5914 5915 5915 5916 5916 5916 5916 5917 5917 5918 5919 5919 5919 5919 5919 5919 5920 5919 5918 5918 5919 5918 5918 5917 5916 5917 5917 5917 5917 5917 5916 5915 5915 5915 5915 5915 5915 5916 5916 5917 5917 5916 5916 5916 5917 5917 5917 5917 5917 5918 5918 5918 5919 5918 5918 5919 5919 5919 5919 5919 5919 5919 5919 5919 5920 5920 5920 5920 5921 5921 5921 5922
5910 5910 5910 5910 5910 5911 5911 5912 5912 5912 5913 5914 5914 5915 5915 5916 5916 5916 5917 5917 5917 5918 5919 5919 5920 5920 5920 5919 5920 5920 5919 5918 5918 5919 5918 5917 5917 5916 5916 5916 5917 5917 5917 5916 5915 5915 5914 5914 5914 5915 5915 5916 5916 5916 5916 5916 5916 5916 5916 5916 5916 5916 5917 5917 5918 5918 5918 5918 5918 5919 5919 5919 5919 5919 5919 5920 5920 5920 5920 5921 5921 5921 5921 5922 5922
5911 5911 5911 5911 5911 5912 5912 5913 5913 5913 5914 5914 5914 5915 5915 5916 5917 5917 5917 5918 5918 5919 5919 5920 5920 5920 5920 5920 5920 5920 5919 5919 5918 5918 5918 5917 5917 5917 5916 5916 5917 5917 5917 5916 5915 5915 5914 5914 5914 5914 5915 5916 5916 5916 5916 5916 5916 5916 5916 5916 5916 5916 5916 5917 5917 5917 5918 5918 5918 5919 5919 5919 5919 5919 5920 5920 5920 5920 5920 5921 5921 5921 5921 5922 5922
5911 5912 5912 5912 5912 5913 5913 5914 5914 5914 5914 5914 5915 5915 5916 5917 5917 5918 5918 5918 5919 5919 5920 5921 5921 5920 5920 5920 5920 5920 5919 5919 5919 5918 5918 5918 5917 5917 5917 5917 5917 5916 5916 5916 5915 5915 5914 5914 5914 5914 5915 5915 5916 5916 5916 5916 5916 5916 5915 5915 5915 5915 5916 5916 5917 5917 5918 5918 5918 5919 5919 5919 5919 5920 5920 5921 5921 5921 5921 5921 5921 5922 5922 5922 5922
5912 5912 5912 5913 5913 5913 5914 5914 5914 5915 5915 5915 5915 5916 5917 5917 5918 5918 5919 5919 5919 5920 5920 5921 5921 5921 5920 5920 5921 5920 5920 5919 5919 5919 5919 5918 5918 5918 5917 5917 5916 5916 5916 5916 5915 5915 5915 5914 5914 5914 5914 5915 5916 5916 5916 5916 5916 5916 5916 5916 5916 5916 5916 5916 5916 5917 5917 5918 5918 5918 5919 5919 5920 5920 5921 5921 5921 5921 5921 5921 5921 5922 5922 5922 5922
5912 5912 5913 5913 5913 5913 5914 5914 5915 5915 5915 5916 5916 5917 5917 5918 5919 5919 5920 5920 5920 5920 5921 5921 5921 5921 5921 5921 5921 5920 5920 5919 5919 5919 5919 5919 5918 5918 5918 5917 5916 5916 5916 5916 5915 5915 5915 5915 5915 5914 5915 5915 5916 5916 5916 5917 5917 5916 5916 5916 5916 5916 5916 5916 5917 5917 5917 5918 5918 5918 5919 5919 5920 5920 5921 5921 5921 5921 5921 5921 5922 5922 5922 5922 5922
5912 5912 5913 5913 5913 5914 5914 5914 5915 5915 5916 5917 5917 5918 5918 5919 5919 5920 5920 5920 5920 5920 5921 5921 5921 5921 5921 5921 5921 5921 5920 5920 5919 5919 5919 5919 5919 5919 5918 5918 5917 5917 5916 5916 5916 5916 5915 5915 5915 5915 5915 5915 5916 5916 5917 5917 5917 5917 5917 5917 5916 5916 5916 5917 5917 5917 5917 5917 5918 5918 5919 5919 5919 5920 5921 5921 5921 5922 5921 5921 5921 5922 5922 5922 5922
5912 5913 5913 5913 5914 5914 5914 5915 5915 5916 5916 5917 5918 5918 5919 5919 5920 5920 5921 5921 5920 5921 5921 5921 5922 5922 5922 5922 5921 5921 5920 5920 5920 5920 5920 5920 5920 5920 5919 5919 5918 5918 5917 5917 5917 5916 5916 5916 5916 5915 5915 5916 5916 5917 5918 5919 5918 5918 5918 5917 5917 5917 5916 5916 5917 5917 5917 5917 5918 5918 5918 5919 5919 5920 5920 5921 5921 5921 5921 5921 5921 5921 5921 5922 5922
5912 5913 5913 5913 5914 5914 5915 5915 5916 5917 5917 5918 5918 5919 5920 5920 5921 5921 5921 5921 5921 5921 5921 5922 5922 5922 5922 5922 5922 5921 5921 5921 5921 5921 5921 5921 5921 5921 5920 5920 5920 5919 5919 5918 5918 5918 5917 5917 5916 5916 5916 5916 5917 5918 5920 5920 5918 5918 5918 5918 5918 5917 5916 5915 5916 5916 5916 5917 5918 5918 5918 5918 5919 5919 5920 5920 5921 5921 5921 5921 5921 5921 5921 5921 5921
5913 5913 5914 5914 5914 5915 5915 5916 5917 5917 5918 5919 5919 5920 5921 5921 5922 5922 5922 5922 5922 5922 5922 5922 5923 5923 5923 5923 5922 5922 5922 5922 5922 5922 5922 5922 5922 5922 5922 5921 5921 5921 5920 5920 5920 5919 5919 5918 5917 5917 5917 5917 5918 5919 5921 5921 5919 5918 5919 5918 5918 5918 5916 5915 5915 5916 5917 5917 5918 5918 5918 5918 5918 5919 5919 5920 5920 5920 5920 5920 5921 5921 5921 5921 5921
5913 5913 5914 5915 5915 5916 5916 5917 5918 5918 5919 5920 5921 5921 5922 5922 5922 5923 5923 5922 5922 5922 5922 5923 5923 5924 5924 5923 5923 5923 5923 5923 5923 5923 5923 5924 5923 5923 5923 5922 5922 5922 5922 5921 5921 5921 5920 5920 5919 5918 5918 5918 5919 5921 5923 5923 5919 5918 5919 5919 5919 5918 5917 5916 5916 5916 5917 5918 5918 5919 5919 5918 5918 5919 5919 5919 5919 5919 5919 5920 5920 5920 5920 5920 5920
5914 5914 5914 5915 5916 5916 5917 5918 5918 5919 5920 5921 5922 5922 5923 5923 5923 5923 5923 5923 5923 5923 5923 5924 5924 5924 5924 5924 5924 5924 5924 5924 5924 5924 5925 5925 5925 5924 5924 5924 5924 5923 5923 5923 5923 5922 5922 5921 5921 5920 5920 5920 5920 5922 5924 5924 5920 5919 5920 5920 5919 5919 5919 5918 5918 5918 5918 5918 5918 5919 5919 5919 5919 5919 5918 5918 5918 5918 5919 5919 5919 5920 5920 5920 5920
5914 5915 5915 5916 5916 5917 5918 5919 5919 5920 5921 5922 5922 5923 5923 5924 5924 5924 5924 5923 5923 5924 5924 5925 5925 5925 5925 5925 5925 5925 5925 5925 5925 5926 5926 5926 5926 5926 5925 5925 5925 5925 5925 5925 5924 5924 5923 5923 5922 5922 5921 5921 5921 5923 5925 5925 5922 5920 5921 5920 5919 5920 5920 5919 5920 5919 5919 5920 5919 5919 5919 5919 5920 5919 5918 5918 5918 5918 5918 5919 5919 5919 5919 5919 5919
5915 5915 5916 5916 5917 5918 5919 5920 5920 5921 5922 5923 5923 5923 5924 5924 5924 5924 5924 5924 5924 5925 5925 5925 5925 5926 5926 5926 5926 5927 5927 5927 5927 5927 5927 5927 5927 5927 5927 5927 5927 5927 5926 5926 5926 5926 5925 5925 5924 5924 5923 5923 5923 5923 5925 5925 5924 5922 5922 5921 5920 5920 5920 5920 5920 5920 5920 5920 5920 5920 5919 5919 5919 5919 5918 5918 5918 5918 5918 5918 5918 5918 5918 5918 5919
5915 5915 5916 5917 5918 5919 5919 5920 5921 5922 5923 5923 5924 5924 5924 5925 5925 5925 5925 5925 5925 5925 5926 5926 5926 5926 5927 5927 5928 5928 5928 5928 5928 5928 5928 5928 5928 5928 5928 5928 5928 5928 5928 5928 5928 5927 5927 5926 5926 5926 5925 5925 5924 5924 5925 5925 5925 5925 5924 5923 5922 5922 5922 5921 5921 5921 5921 5920 5920 5920 5920 5919 5918 5918 5918 5917 5917 5917 5917 5917 5917 5917 5918 5918 5918
5915 5916 5917 5917 5918 5919 5920 5921 5922 5923 5923 5924 5924 5924 5925 5925 5925 5925 5925 5926 5926 5926 5926 5926 5927 5927 5928 5929 5929 5929 5929 5929 5929 5930 5930 5929 5929 5929 5929 5929 5929 5929 5929 5929 5929 5928 5928 5928 5927 5927 5926 5926 5926 5926 5926 5926 5927 5927 5926 5925 5924 5924 5923 5923 5922 5921 5921 5921 5921 5920 5920 5919 5918 5918 5917 5917 5916 5916 5916 5916 5917 5917 5917 5917 5917
5915 5916 5917 5918 5919 5920 5921 5921 5922 5923 5924 5924 5924 5925 5925 5925 5925 5926 5926 5926 5926 5926 5927 5927 5928 5928 5929 5930 5930 5930 5930 5931 5931 5931 5931 5930 5930 5930 5931 5931 5930 5930 5930 5930 5930 5929 5929 5929 5928 5928 5927 5927 5927 5927 5927 5926 5926 5927 5927 5926 5926 5925 5924 5923 5923 5922 5921 5921 5921 5921 5920 5919 5918 5918 5917 5916 5916 5916 5916 5916 5916 5916 5916 5915 5915
5915 5916 5917 5918 5919 5920 5921 5922 5922 5923 5924 5924 5925 5925 5925 5926 5926 5926 5926 5927 5927 5927 5927 5928 5928 5929 5930 5930 5931 5931 5931 5932 5932 5932 5932 5932 5932 5932 5932 5932 5931 5931 5931 5931 5931 5931 5930 5930 5929 5929 5929 5928 5928 5928 5927 5927 5926 5926 5926 5926 5927 5926 5926 5924 5923 5923 5923 5922 5921 5921 5920 5920 5919 5919 5918 5917 5916 5916 5916 5916 5915 5915 5914 5914 5913
5916 5917 5918 5919 5920 5921 5922 5922 5923 5924 5924 5925 5925 5925 5926 5926 5926 5926 5927 5927 5928 5928 5929 5929 5929 5930 5931 5931 5931 5932 5932 5933 5933 5934 5933 5933 5933 5934 5934 5933 5933 5932 5932 5933 5932 5932 5932 5931 5931 5931 5930 5930 5929 5928 5928 5927 5927 5926 5926 5926 5926 5926 5926 5925 5924 5924 5923 5922 5922 5921 5921 5920 5920 5919 5918 5917 5917 5917 5916 5916 5915 5914 5913 5913 5912
5916 5917 5918 5919 5920 5921 5922 5923 5923 5924 5925 5925 5925 5925 5926 5926 5926 5927 5927 5928 5928 5929 5929 5930 5930 5931 5932 5932 5932 5932 5933 5933 5933 5934 5934 5934 5934 5935 5935 5934 5934 5934 5934 5934 5934 5933 5933 5933 5932 5932 5931 5930 5930 5929 5929 5928 5928 5927 5927 5926 5926 5926 5925 5925 5924 5924 5923 5923 5922 5922 5921 5921 5920 5919 5919 5918 5917 5917 5916 5916 5915 5914 5913 5912 5912
5916 5918 5919 5920 5920 5921 5922 5923 5924 5924 5925 5925 5925 5926 5926 5926 5927 5927 5928 5928 5929 5930 5930 5930 5931 5931 5932 5932 5932 5932 5932 5933 5934 5934 5934 5935 5935 5935 5936 5935 5935 5935 5935 5934 5934 5934 5934 5933 5933 5932 5931 5931 5930 5930 5929 5929 5928 5928 5927 5926 5926 5925 5925 5925 5924 5923 5923 5923 5922 5922 5921 5921 5920 5919 5919 5918 5917 5917 5916 5916 5915 5914 5913 5912 5912
5917 5918 5919 5920 5921 5922 5922 5923 5924 5924 5925 5925 5926 5926 5926 5927 5927 5928 5929 5929 5930 5930 5931 5931 5931 5932 5932 5932 5932 5933 5933 5933 5934 5935 5935 5935 5936 5936 5936 5936 5936 5936 5935 5935 5934 5934 5934 5934 5933 5932 5932 5931 5931 5930 5930 5929 5928 5928 5927 5926 5926 5925 5924 5924 5924 5923 5922 5922 5922 5922 5921 5920 5920 5919 5918 5918 5917 5917 5916 5916 5915 5914 5913 5913 5913
5917 5918 5919 5920 5921 5922 5923 5923 5924 5925 5925 5925 5926 5926 5926 5927 5927 5928 5929 5929 5930 5931 5931 5932 5932 5933 5933 5933 5933 5933 5934 5934 5935 5935 5935 5936 5936 5936 5937 5937 5937 5936 5936 5935 5935 5935 5934 5934 5933 5933 5932 5932 5931 5931 5930 5929 5928 5928 5927 5926 5926 5925 5924 5924 5924 5923 5922 5922 5922 5922 5921 5920 5919 5919 5918 5918 5917 5917 5916 5916 5916 5914 5914 5914 5914
5918 5919 5920 5921 5921 5922 5923 5924 5924 5925 5925 5926 5926 5926 5926 5927 5928 5928 5929 5930 5930 5931 5931 5932 5933 5933 5933 5933 5933 5934 5934 5935 5935 5935 5935 5935 5936 5936 5937 5937 5937 5936 5936 5936 5936 5935 5935 5934 5934 5933 5933 5932 5931 5931 5930 5929 5929 5928 5927 5926 5926 5925 5924 5923 5923 5923 5923 5922 5921 5921 5921 5920 5919 5919 5918 5918 5917 5917 5916 5916 5916 5915 5915 5914 5914
5918 5919 5920 5921 5922 5923 5923 5924 5925 5925 5925 5926 5926 5926 5927 5927 5928 5928 5929 5930 5930 5931 5931 5932 5932 5933 5933 5933 5933 5934 5934 5934 5935 5935 5935 5935 5936 5936 5936 5937 5937 5936 5936 5936 5936 5935 5935 5934 5933 5933 5933 5932 5932 5931 5930 5930 5929 5928 5927 5926 5925 5925 5924 5923 5922 5922 5922 5922 5921 5920 5920 5919 5919 5919 5918 5918 5917 5916 5916 5916 5916 5915 5915 5915 5914
5918 5919 5920 5921 5922 5923 5923 5924 5925 5925 5926 5926 5926 5927 5927 5928 5928 5929 5929 5930 5930 5931 5931 5932 5932 5933 5933 5933 5933 5933 5933 5934 5935 5935 5935 5935 5936 5936 5936 5937 5937 5937 5936 5936 5936 5935 5935 5934 5933 5933 5933 5932 5932 5931 5930 5930 5929 5928 5927 5926 5925 5925 5924 5923 5922 5921 5921 5921 5921 5920 5919 5919 5918 5918 5918 5917 5917 5916 5916 5916 5916 5915 5915 5915 5914
5918 5919 5920 5921 5922 5923 5923 5924 5925 5925 5926 5926 5927 5927 5927 5928 5928 5928 5929 5929 5930 5931 5931 5932 5932 5933 5933 5933 5933 5933 5933 5934 5934 5935 5935 5935 5936 5936 5937 5937 5936 5936 5936 5936 5935 5935 5934 5934 5933 5933 5932 5932 5932 5932 5930 5929 5929 5928 5927 5926 5925 5924 5924 5923 5922 5921 5921 5920 5919 5919 5919 5918 5917 5917 5918 5917 5917 5916 5916 5916 5915 5915 5915 5914 5914
5918 5919 5920 5921 5922 5923 5923 5924 5925 5925 5926 5926 5927 5927 5927 5928 5928 5928 5929 5929 5930 5931 5931 5932 5932 5933 5933 5933 5933 5933 5934 5934 5935 5935 5935 5936 5936 5936 5936 5936 5936 5936 5936 5935 5935 5934 5934 5934 5933 5933 5932 5932 5932 5932 5931 5929 5929 5928 5927 5926 5926 5924 5924 5923 5922 5922 5921 5920 5919 5918 5918 5918 5917 5917 5917 5917 5916 5916 5916 5916 5915 5915 5914 5914 5913
5918 5919 5920 5921 5922 5922 5923 5924 5924 5925 5926 5926 5927 5927 5927 5928 5928 5928 5929 5929 5930 5931 5932 5932 5932 5933 5933 5933 5933 5934 5934 5934 5935 5935 5936 5936 5936 5936 5936 5936 5936 5935 5935 5934 5934 5934 5933 5933 5933 5932 5932 5932 5932 5931 5930 5929 5928 5928 5927 5926 5926 5924 5923 5923 5922 5922 5921 5920 5919 5918 5917 5917 5916 5916 5916 5916 5916 5915 5915 5915 5915 5915 5914 5913 5912
5918 5919 5920 5920 5921 5922 5923 5923 5924 5925 5925 5926 5926 5927 5927 5927 5927 5928 5928 5929 5930 5931 5932 5932 5932 5932 5933 5933 5933 5934 5934 5935 5935 5935 5935 5936 5936 5936 5935 5935 5935 5935 5934 5933 5933 5932 5932 5932 5932 5931 5931 5931 5931 5930 5930 5929 5928 5927 5927 5926 5925 5924 5923 5923 5922 5921 5921 5920 5919 5918 5917 5917 5916 5916 5915 5915 5915 5915 5915 5915 5915 5914 5913 5912 5911
5918 5918 5919 5920 5921 5922 5922 5923 5923 5924 5925 5925 5926 5926 5927 5927 5927 5928 5928 5929 5930 5931 5932 5932 5932 5932 5933 5933 5934 5934 5934 5935 5935 5935 5935 5935 5936 5936 5935 5935 5934 5934 5933 5933 5932 5932 5931 5931 5931 5930 5930 5930 5930 5929 5929 5928 5928 5927 5926 5926 5925 5924 5923 5923 5922 5921 5920 5920 5919 5918 5917 5917 5917 5916 5915 5914 5914 5914 5914 5914 5914 5914 5913 5912 5911
5917 5918 5919 5920 5920 5921 5922 5923 5923 5923 5924 5925 5925 5926 5926 5926 5927 5927 5928 5929 5929 5930 5931 5931 5932 5932 5933 5933 5934 5934 5934 5934 5935 5935 5935 5935 5935 5935 5935 5934 5934 5934 5933 5932 5932 5931 5930 5930 5930 5930 5930 5929 5929 5929 5928 5928 5927 5926 5925 5925 5924 5923 5922 5922 5922 5921 5920 5919 5918 5918 5917 5917 5916 5916 5915 5914 5913 5913 5913 5913 5913 5912 5912 5911 5910
5916 5917 5918 5919 5920 5920 5921 5922 5922 5923 5924 5924 5925 5925 5925 5926 5926 5927 5927 5928 5929 5930 5930 5931 5932 5932 5933 5933 5934 5934 5934 5934 5934 5934 5935 5935 5934 5934 5934 5933 5933 5933 5932 5931 5931 5930 5930 5929 5929 5929 5928 5928 5928 5928 5927 5927 5926 5926 5925 5924 5923 5923 5922 5921 5921 5920 5920 5918 5917 5916 5916 5916 5916 5915 5914 5914 5912 5912 5913 5912 5912 5911 5911 5910 5909
5916 5917 5918 5918 5919 5919 5920 5921 5922 5922 5923 5924 5924 5925 5925 5925 5926 5926 5927 5928 5928 5929 5930 5930 5931 5932 5932 5933 5933 5933 5933 5933 5934 5934 5934 5933 5933 5933 5933 5932 5932 5931 5931 5930 5929 5929 5929 5929 5928 5928 5927 5927 5927 5927 5927 5926 5925 5925 5924 5924 5923 5922 5921 5920 5920 5919 5919 5918 5917 5915 5914 5915 5914 5913 5913 5913 5911 5911 5912 5911 5911 5911 5910 5908 5907
5915 5916 5917 5917 5918 5918 5919 5920 5921 5922 5922 5923 5924 5924 5924 5925 5925 5926 5926 5927 5928 5928 5929 5930 5930 5931 5931 5932 5932 5932 5932 5933 5933 5933 5932 5932 5932 5931 5931 5931 5931 5930 5929 5929 5928 5928 5928 5927 5927 5927 5926 5926 5926 5925 5925 5925 5924 5924 5923 5923 5922 5921 5920 5919 5919 5918 5918 5917 5917 5915 5913 5913 5913 5912 5911 5911 5910 5909 5910 5910 5910 5910 5910 5908 5906
5915 5915 5916 5916 5917 5918 5918 5919 5920 5921 5922 5922 5923 5923 5924 5924 5924 5925 5926 5926 5927 5927 5928 5929 5930 5930 5930 5931 5931 5931 5931 5932 5931 5931 5931 5931 5930 5930 5930 5930 5929 5929 5928 5928 5927 5926 5926 5926 5926 5926 5925 5925 5925 5924 5923 5923 5923 5922 5922 5921 5921 5920 5919 5918 5917 5917 5916 5916 5916 5915 5913 5912 5911 5910 5910 5909 5909 5908 5907 5908 5908 5908 5908 5907 5905
5914 5915 5915 5916 5916 5917 5917 5918 5918 5919 5921 5921 5922 5922 5923 5923 5924 5924 5925 5925 5926 5926 5927 5928 5929 5929 5930 5930 5930 5931 5931 5931 5930 5930 5930 5930 5929 5929 5929 5929 5928 5928 5927 5926 5925 5925 5925 5924 5924 5924 5924 5924 5923 5923 5922 5921 5921 5920 5920 5919 5919 5919 5918 5917 5916 5915 5914 5913 5913 5913 5913 5911 5909 5908 5908 5907 5906 5906 5906 5905 5905 5904 5905 5906 5904
5913 5914 5915 5916 5916 5916 5916 5917 5917 5918 5919 5920 5921 5921 5922 5922 5923 5923 5924 5924 5925 5925 5926 5927 5928 5929 5929 5929 5929 5930 5930 5930 5930 5929 5929 5929 5929 5928 5928 5927 5927 5927 5926 5925 5924 5924 5924 5923 5923 5922 5922 5922 5922 5921 5920 5919 5919 5918 5918 5917 5917 5916 5916 5916 5915 5913 5912 5911 5911 5911 5911 5911 5909 5907 5906 5904 5903 5904 5904 5903 5903 5902 5901 5902 5902
5913 5913 5914 5915 5915 5916 5916 5916 5916 5917 5918 5919 5919 5920 5920 5921 5922 5922 5923 5923 5924 5924 5925 5926 5927 5928 5928 5928 5928 5929 5929 5929 5929 5929 5928 5928 5928 5928 5927 5926 5926 5926 5925 5924 5924 5923 5923 5922 5921 5921 5921 5920 5920 5920 5919 5918 5917 5916 5916 5915 5914 5914 5914 5913 5913 5912 5910 5909 5908 5907 5908 5909 5907 5906 5905 5903 5901 5900 5901 5901 5901 5900 5899 5898 5898
5912 5912 5912 5913 5914 5915 5915 5915 5915 5916 5916 5917 5918 5918 5919 5920 5920 5921 5921 5922 5923 5923 5924 5925 5926 5926 5927 5927 5927 5928 5928 5928 5928 5928 5927 5927 5927 5926 5926 5926 5925 5924 5924 5923 5923 5922 5922 5921 5921 5920 5919 5919 5918 5918 5917 5916 5916 5915 5914 5913 5912 5912 5911 5911 5910 5909 5908 5907 5906 5905 5905 5905 5904 5904 5904 5902 5900 5899 5898 5898 5898 5897 5896 5896 5895
5910 5911 5911 5911 5913 5913 5914 5914 5914 5915 5915 5915 5916 5917 5917 5918 5919 5919 5920 5921 5921 5922 5923 5924 5925 5925 5926 5926 5926 5927 5927 5927 5927 5926 5926 5926 5926 5925 5925 5925 5924 5923 5923 5923 5922 5921 5921 5921 5920 5919 5918 5917 5917 5916 5915 5915 5914 5913 5913 5912 5911 5910 5909 5908 5907 5906 5905 5903 5903 5902 5901 5901 5900 5900 5900 5900 5899 5897 5896 5895 5895 5894 5893 5893 5892